Location: Peterborough
(44.3091°N, 78.3197°W)
Time: 00:41:07
(UTC-05:00)

Tiros 1 despin weight - Pass Details

Date: 05 December 2023
Orbit: 581 x 624 km, 48.2° (Epoch: 28 February)

Event Time Altitude Azimuth Distance (km) Brightness Sun altitude
Rises 17:16:21 0° 212° (SSW) 2,802 ? -7.5°
Reaches altitude 10° 17:18:51 10° 201° (SSW) 1,899 ? -7.9°
Enters shadow 17:26:09 11° 84° (E) 1,849 ? -9.1°
Exits shadow 18:01:16 -68° 55° (NE) 12,513 ? -15.0°
